| time (UTC) | temp C | wind direction | speed KPH | gust KPH | rain 1hr cm | rain 24hr cm | rain mn cm | humidity % | barometer mb |
| 20260504042015 | 5 | 0 | 0.0 | 0.0 | 0.00 | 0.00 | 0.00 | 73 | 1010.3 |
| 20260504040715 | 5 | 0 | 0.0 | 0.0 | 0.00 | 0.00 | 0.00 | 75 | 1010.3 |
| 20260504035415 | 5 | 0 | 0.0 | 0.0 | 0.00 | 0.00 | 0.00 | 77 | 1010.3 |
| 20260504034114 | 5 | 0 | 0.0 | 0.0 | 0.00 | 0.00 | 0.00 | 75 | 1010.2 |
| 20260504032814 | 5 | 0 | 0.0 | 0.0 | 0.00 | 0.00 | 0.00 | 73 | 1010.2 |
| 20260504031518 | 5 | 0 | 0.0 | 0.0 | 0.00 | 0.00 | 0.00 | 71 | 1010.3 |
| 20260504031515 | 5 | 0 | 0.0 | 0.0 | 0.00 | 0.00 | 0.00 | 71 | 1010.3 |
| 20260504030215 | 5 | 0 | 0.0 | 1.6 | 0.00 | 0.00 | 0.00 | 70 | 1010.1 |
| 20260504024915 | 6 | 0 | 0.0 | 1.6 | 0.00 | 0.00 | 0.00 | 66 | 1010.2 |
| 20260504023615 | 5 | 0 | 0.0 | 0.0 | 0.00 | 0.00 | 0.00 | 68 | 1010.2 |
| 20260504022315 | 5 | 0 | 0.0 | 0.0 | 0.00 | 0.00 | 0.00 | 69 | 1010.3 |
| 20260504021014 | 6 | 0 | 0.0 | 0.0 | 0.00 | 0.00 | 0.00 | 68 | 1010.1 |
| 20260504015714 | 6 | 0 | 0.0 | 0.0 | 0.00 | 0.00 | 0.00 | 64 | 1010.0 |
| 20260504014415 | 7 | 0 | 0.0 | 1.6 | 0.00 | 0.00 | 0.00 | 60 | 1009.9 |
| 20260504013115 | 7 | 0 | 0.0 | 1.6 | 0.00 | 0.00 | 0.00 | 61 | 1009.8 |
| 20260504011815 | 7 | 0 | 0.0 | 1.6 | 0.00 | 0.00 | 0.00 | 61 | 1009.7 |
| 20260504010515 | 7 | 0 | 0.0 | 0.0 | 0.00 | 0.00 | 0.00 | 58 | 1009.7 |
| 20260504005214 | 8 | 0 | 0.0 | 1.6 | 0.00 | 0.00 | 0.00 | 55 | 1009.7 |
| 20260504003914 | 8 | 0 | 0.0 | 1.6 | 0.00 | 0.00 | 0.00 | 53 | 1009.6 |
| 20260504002618 | 9 | 0 | 0.0 | 3.2 | 0.00 | 0.00 | 0.00 | 52 | 1009.5 |
| 20260504002614 | 9 | 0 | 0.0 | 3.2 | 0.00 | 0.00 | 0.00 | 52 | 1009.5 |
| 20260504001315 | 10 | 0 | 0.0 | 3.2 | 0.00 | 0.00 | 0.00 | 50 | 1009.4 |
| 20260504000015 | 10 | 0 | 0.0 | 3.2 | 0.00 | 0.00 | 0.00 | 49 | 1009.4 |
| 20260503234715 | 10 | 330 | 1.6 | 6.4 | 0.00 | 0.00 | 0.00 | 47 | 1009.3 |
| 20260503233414 | 11 | 0 | 0.0 | 8.0 | 0.00 | 0.00 | 0.00 | 45 | 1009.3 |
| 20260503232114 | 11 | 0 | 0.0 | 9.7 | 0.00 | 0.00 | 0.00 | 46 | 1009.2 |
| 20260503230814 | 11 | 336 | 1.6 | 11.3 | 0.00 | 0.00 | 0.00 | 43 | 1009.1 |
| 20260503225514 | 11 | 0 | 0.0 | 11.3 | 0.00 | 0.00 | 0.00 | 45 | 1009.1 |
| 20260503224215 | 12 | 271 | 1.6 | 8.0 | 0.00 | 0.00 | 0.00 | 42 | 1009.2 |
| 20260503222915 | 12 | 303 | 1.6 | 12.9 | 0.00 | 0.00 | 0.00 | 43 | 1009.2 |
| 20260503221614 | 12 | 0 | 0.0 | 12.9 | 0.00 | 0.00 | 0.00 | 43 | 1008.2 |
| 20260503220314 | 12 | 172 | 3.2 | 11.3 | 0.00 | 0.00 | 0.00 | 41 | 1008.3 |
| 20260503215014 | 12 | 305 | 3.2 | 9.7 | 0.00 | 0.00 | 0.00 | 42 | 1008.3 |
| 20260503213714 | 12 | 0 | 0.0 | 12.9 | 0.00 | 0.00 | 0.00 | 43 | 1008.3 |
| 20260503212414 | 12 | 284 | 3.2 | 11.3 | 0.00 | 0.00 | 0.00 | 42 | 1008.2 |
| 20260503211115 | 12 | 0 | 0.0 | 6.4 | 0.00 | 0.00 | 0.00 | 43 | 1008.1 |
| 20260503205815 | 12 | 301 | 1.6 | 17.7 | 0.00 | 0.00 | 0.00 | 44 | 1008.1 |
| 20260503204514 | 12 | 264 | 3.2 | 8.0 | 0.00 | 0.00 | 0.00 | 40 | 1008.3 |
| 20260503203214 | 13 | 156 | 1.6 | 12.9 | 0.00 | 0.00 | 0.00 | 41 | 1008.3 |
| 20260503201914 | 12 | 348 | 1.6 | 14.5 | 0.00 | 0.00 | 0.00 | 41 | 1008.2 |
| 20260503200614 | 12 | 123 | 3.2 | 11.3 | 0.00 | 0.00 | 0.00 | 41 | 1008.3 |
| 20260503195314 | 12 | 323 | 1.6 | 8.0 | 0.00 | 0.00 | 0.00 | 42 | 1008.5 |
| 20260503194015 | 12 | 291 | 6.4 | 14.5 | 0.00 | 0.00 | 0.00 | 42 | 1008.8 |
| 20260503192715 | 11 | 314 | 3.2 | 11.3 | 0.00 | 0.00 | 0.00 | 44 | 1009.2 |
| 20260503191414 | 11 | 271 | 6.4 | 16.1 | 0.00 | 0.00 | 0.00 | 44 | 1009.3 |
| 20260503190114 | 11 | 316 | 9.7 | 17.7 | 0.00 | 0.00 | 0.00 | 45 | 1009.5 |
| 20260503184814 | 11 | 311 | 1.6 | 11.3 | 0.00 | 0.00 | 0.00 | 44 | 1009.3 |
| 20260503183514 | 11 | 330 | 3.2 | 11.3 | 0.00 | 0.00 | 0.00 | 43 | 1009.3 |
| 20260503182214 | 11 | 299 | 3.2 | 16.1 | 0.00 | 0.00 | 0.00 | 44 | 1009.5 |
| 20260503180915 | 11 | 320 | 1.6 | 16.1 | 0.00 | 0.00 | 0.00 | 45 | 1009.5 |
| 20260503175614 | 11 | 292 | 4.8 | 16.1 | 0.00 | 0.00 | 0.00 | 45 | 1009.6 |
| 20260503174314 | 11 | 343 | 3.2 | 20.9 | 0.00 | 0.00 | 0.00 | 45 | 1009.7 |
| 20260503173017 | 12 | 278 | 4.8 | 16.1 | 0.00 | 0.00 | 0.00 | 43 | |
| 20260503173014 | 12 | 278 | 4.8 | 16.1 | 0.00 | 0.00 | 0.00 | 43 | 1009.7 |
| 20260503171716 | 11 | 293 | 3.2 | 11.3 | 0.00 | 0.00 | 0.00 | 41 | 1009.7 |
| 20260503171714 | 11 | 293 | 3.2 | 11.3 | 0.00 | 0.00 | 0.00 | 41 | 1009.7 |
| 20260503170414 | 11 | 322 | 6.4 | 24.1 | 0.00 | 0.00 | 0.00 | 42 | 1009.9 |
| 20260503150714 | 8 | 342 | 1.6 | 12.9 | 0.00 | 0.00 | 0.00 | 55 | 1011.1 |
| 20260503140213 | 6 | 301 | 3.2 | 14.5 | 0.00 | 0.00 | 0.00 | 52 | 1011.4 |
| 20260503131014 | 5 | 282 | 3.2 | 14.5 | 0.00 | 0.00 | 0.00 | 60 | 1011.5 |
| 20260503081116 | 1 | 0 | 0.0 | 4.8 | 0.00 | 0.00 | 0.00 | 79 | 1010.4 |
| 20260503081113 | 1 | 0 | 0.0 | 1.6 | 0.00 | 0.00 | 0.00 | 79 | 1010.4 |
| 20260503071914 | 1 | 0 | 0.0 | 0.0 | 0.00 | 0.00 | 0.00 | 78 | 1010.2 |
| 20260503070613 | 1 | 0 | 0.0 | 0.0 | 0.00 | 0.00 | 0.00 | 78 | 1010.3 |
| 20260503060113 | 1 | 0 | 0.0 | 0.0 | 0.00 | 0.00 | 0.00 | 77 | 1010.5 |
| 20260503054816 | 1 | 0 | 0.0 | 3.2 | 0.00 | 0.00 | 0.00 | 77 | 101.0 |
| 20260503054813 | 1 | 0 | 0.0 | 3.2 | 0.00 | 0.00 | 0.00 | 77 | 1010.5 |
| 20260503053513 | 1 | 0 | 0.0 | 0.0 | 0.00 | 0.00 | 0.00 | 79 | 1010.5 |
| 20260503052213 | 1 | 0 | 0.0 | 0.0 | 0.00 | 0.00 | 0.00 | 78 | 1010.5 |
| 20260503050916 | 1 | 0 | 0.0 | 0.0 | 0.00 | 0.00 | 0.00 | 78 | 1010.5 |
| 20260503050913 | 1 | 0 | 0.0 | 0.0 | 0.00 | 0.00 | 0.00 | 78 | 1010.5 |
| 20260503045613 | 1 | 0 | 0.0 | 0.0 | 0.00 | 0.00 | 0.00 | 77 | 1010.7 |
| 20260503044314 | 2 | 0 | 0.0 | 0.0 | 0.00 | 0.03 | 0.00 | 75 | 1010.8 |
| 20260503043017 | 2 | 0 | 0.0 | 0.0 | 0.00 | 0.03 | 0.00 | 74 | 1030.9 |
| 20260503043013 | 2 | 0 | 0.0 | 0.0 | 0.00 | 0.03 | 0.00 | 74 | 1010.9 |